SCP
2 2 1 1 1 1 1 1 1 1 1 1 1 1 1 1 1 1 1 1 1 1 1 2 2 1 1 1 1 1 1 1 1 1 1 1 1 1 1 0 0 0 0
2 2 2 2 2 2 2 1 1 1 1 1 1 1 1 1 1 1 1 1 1 1 1 1 1 1 1 1 1 1 1 1 1 1 1 1 1 1 1 0 0 0 0
2 2 2 2 2 2 2 2 1 1 1 1 1 1 1 1 1 1 1 1 1 1 1 1 1 1 1 1 1 1 1 1 1 1 1 1 1 1 1 1 1 0 0
2 2 2 1 1 1 1 1 1 1 1 0 0 1 1 1 1 1 1 1 1 1 1 1 2 1 1 1 1 1 1 2 2 2 1 1 1 1 1 1 1 1 1
2 2 2 2 2 2 2 2 1 1 0 0 0 0 1 1 1 1 1 1 1 1 1 1 2 2 2 2 2 2 2 2 2 2 2 1 1 1 1 1 1 1 1
3 3 2 2 2 2 2 2 1 1 0 0 0 0 1 1 1 1 1 1 1 1 1 1 2 2 2 2 2 2 2 2 2 2 2 2 2 1 1 1 1 1 1
5 4 3 2 2 2 2 1 1 1 0 0 0 0 0 0 0 1 1 1 1 1 2 2 2 2 2 1 2 2 2 2 2 2 2 1 1 1 1 1 1 1 1
5 4 2 1 1 1 1 1 1 1 1 1 1 1 0 0 0 0 0 1 1 1 2 2 2 2 1 1 1 2 2 2 2 2 1 1 1 1 1 1 1 1 1
5 3 2 1 1 1 1 1 1 1 2 2 1 1 1 1 1 0 0 1 1 1 1 2 2 2 2 1 1 1 2 2 2 1 1 1 1 1 1 1 1 1 1
4 3 1 1 1 1 1 1 1 2 2 2 2 2 2 2 1 1 1 1 1 1 1 2 2 2 2 2 1 1 1 1 1 1 1 1 2 2 2 1 1 1 1
3 2 1 1 1 1 1 1 1 1 2 2 2 3 3 3 2 2 1 1 1 1 1 1 2 2 2 2 2 1 1 1 1 1 1 1 2 2 2 2 1 1 1
2 2 1 1 1 1 1 1 1 1 2 2 2 3 3 3 3 3 2 2 1 1 1 1 1 2 2 3 2 1 1 1 1 1 1 1 2 3 3 2 1 1 1
2 2 1 1 1 1 1 1 1 1 2 2 3 3 3 3 3 3 3 2 2 1 1 0 1 1 2 2 2 1 2 2 2 1 1 1 2 3 3 2 2 1 1
3 2 1 1 1 1 1 1 1 1 2 2 3 3 3 4 4 4 3 3 2 1 1 0 1 1 1 2 1 1 2 2 2 1 1 1 1 2 2 2 1 1 1
3 2 2 1 1 1 1 1 1 2 2 2 3 3 3 4 4 4 3 3 3 2 1 1 1 1 1 1 1 1 2 2 1 1 1 1 1 1 1 1 1 1 1
2 2 2 1 1 1 2 2 2 2 2 3 3 3 3 4 4 4 4 4 3 2 2 1 1 1 1 1 1 1 1 1 1 1 1 1 1 1 1 0 0 0 0
2 2 2 2 2 2 2 2 2 3 3 3 4 4 4 5 5 5 5 5 4 4 3 2 1 1 1 1 1 1 2 2 1 1 1 1 1 1 0 0 0 0 0
2 2 2 2 2 2 3 3 3 3 3 4 4 5 5 6 6 6 6 6 6 5 4 2 2 1 1 1 2 2 2 2 2 1 1 1 0 0 0 0 0 0 0
3 3 3 3 4 4 4 4 5 5 5 5 5 5 5 5 6 6 7 7 7 7 5 4 2 2 2 2 2 2 2 2 2 2 1 1 0 0 0 0 0 0 0
3 3 4 4 5 5 5 5 6 6 6 5 5 5 5 5 5 6 7 7 7 7 6 5 3 3 3 2 2 2 2 2 2 2 2 1 1 0 0 0 0 0 0
4 4 4 4 4 4 5 5 5 5 5 5 4 4 4 5 5 5 5 6 6 7 6 5 4 3 3 3 3 2 2 2 2 2 2 2 1 0 0 0 0 0 0
5 4 3 3 3 3 3 4 4 4 4 3 3 3 4 4 4 4 4 4 4 5 5 4 4 3 3 3 3 2 1 1 1 2 2 2 1 1 1 0 0 0 0
5 5 4 3 3 3 3 3 4 4 4 3 3 3 3 4 4 4 3 3 3 3 3 3 2 2 2 2 2 1 1 1 2 2 2 2 1 1 0 0 0 0 0
6 5 5 5 5 5 4 3 2 3 3 3 3 3 3 4 3 3 3 2 2 2 2 2 2 2 1 1 1 1 1 1 2 2 2 2 1 1 0 0 0 0 0
6 6 6 6 6 6 4 2 2 2 2 3 3 3 3 3 2 2 2 2 2 2 2 1 1 1 1 0 1 1 1 2 2 2 3 2 2 1 1 0 0 0 0
6 6 7 7 6 5 4 2 2 2 2 2 2 2 2 2 2 1 1 1 1 1 1 1 1 1 0 0 0 1 1 2 3 3 3 3 2 1 1 0 0 0 0
Wind_Speed
3 2 2 2 2 2 2 2 2 2 2 2 3 4 3 3 4 3 3 9 10 10 11 12 12 12 12 13 12 12 12 11 11 10 10 11 11 11 11 10 10 10 9
3 3 2 2 2 2 2 3 3 2 2 2 3 3 3 3 3 4 3 6 10 10 11 12 12 12 12 12 12 13 12 12 12 11 11 11 11 11 11 11 10 10 9
3 3 3 2 2 2 3 2 2 2 2 2 2 3 3 3 3 4 4 3 4 8 10 11 11 11 12 13 13 13 12 12 12 12 12 11 11 12 12 12 11 10 9
3 3 2 2 2 2 2 2 2 2 1 1 1 2 2 3 3 4 3 3 3 4 7 10 10 11 12 13 13 13 13 13 13 13 13 13 13 12 12 12 11 11 10
3 3 2 1 1 2 2 2 2 2 2 2 2 1 1 2 3 4 4 4 4 4 4 7 10 11 12 12 13 13 13 13 13 14 14 13 13 13 13 12 12 11 11
3 3 2 1 1 2 1 1 2 1 2 2 2 1 1 2 2 3 4 4 4 5 4 5 5 7 10 11 12 13 13 13 13 14 14 14 14 13 13 13 13 12 12
3 3 2 1 2 2 2 2 1 1 1 1 2 1 2 1 2 2 2 2 3 3 3 4 3 3 4 9 10 12 13 14 13 13 13 13 13 13 13 14 13 12 13
3 3 3 2 2 2 1 1 2 1 1 2 2 2 1 3 2 1 1 2 2 2 3 4 4 4 3 3 6 11 12 13 13 13 14 13 12 12 12 13 13 13 13
3 3 3 2 2 2 2 2 2 3 1 1 2 3 2 2 2 2 1 1 1 2 2 2 3 4 4 3 3 7 11 11 12 14 13 13 13 13 13 13 12 13 13
3 3 3 3 2 2 2 2 2 2 2 1 1 1 2 3 2 1 2 1 1 2 2 2 3 3 3 3 4 5 7 9 10 11 11 11 12 13 13 13 13 12 11
2 3 3 3 3 2 2 2 2 2 2 2 1 1 0 0 2 2 2 2 2 2 2 2 2 2 3 3 3 4 6 7 9 10 11 10 10 11 12 13 13 13 12
1 2 3 3 3 2 2 2 2 2 2 2 1 1 2 1 2 2 2 2 2 2 2 1 1 2 2 2 4 5 6 6 7 9 10 10 10 9 10 11 11 11 11
1 2 3 2 2 2 3 2 2 2 2 2 2 1 2 2 2 2 2 1 1 2 1 1 1 1 1 1 2 4 4 5 6 7 7 7 7 7 7 8 9 9 9
2 2 2 2 2 2 2 2 1 1 1 1 1 1 1 1 2 2 3 2 1 1 1 2 1 1 1 1 2 3 2 4 5 5 5 5 5 5 5 5 5 5 5
2 2 2 2 2 2 2 2 1 1 1 1 1 1 1 1 1 1 2 3 3 2 2 2 1 1 1 0 1 1 1 2 4 4 4 4 5 5 4 4 4 4 3
2 2 2 2 2 2 2 2 1 1 2 2 1 1 1 1 1 1 1 1 2 3 2 2 2 1 1 0 0 0 1 2 3 4 4 5 5 5 4 5 5 4 4
2 2 2 2 2 2 2 2 2 2 2 2 2 1 2 1 1 1 1 1 1 2 2 2 1 1 1 1 1 0 0 1 1 3 4 5 5 4 4 4 4 4 4
2 2 2 3 3 3 2 3 3 2 2 2 2 2 2 1 1 1 1 1 1 2 2 2 1 1 1 1 0 0 0 1 1 3 4 5 5 5 4 4 4 4 4
2 1 2 2 2 2 3 3 3 3 3 3 3 3 3 2 2 2 2 1 1 1 1 2 1 1 1 0 1 1 1 1 1 2 3 4 4 4 4 4 4 4 4
3 2 2 3 3 3 3 3 3 3 3 3 3 3 3 3 3 3 2 2 1 1 1 1 1 1 1 0 1 0 1 1 1 0 1 2 3 3 3 3 4 4 5
3 2 2 2 2 3 3 3 3 4 3 3 3 3 3 3 3 3 3 3 2 2 2 2 1 1 1 0 1 1 1 0 1 0 1 0 1 1 1 2 3 4 5
2 2 2 2 3 3 4 5 4 3 3 3 3 3 3 2 3 4 4 4 4 4 3 3 2 2 3 2 1 1 1 1 1 1 1 0 1 1 1 1 3 4 5
3 3 3 3 3 4 4 5 6 4 4 4 3 3 3 2 3 2 2 3 3 4 6 5 4 4 4 4 3 1 1 1 2 2 1 1 1 1 2 2 4 4 5
3 3 4 4 4 4 4 4 5 3 3 3 3 4 4 3 3 3 2 1 2 3 4 4 5 5 4 4 4 4 3 1 0 0 2 1 1 2 2 1 3 5 5
3 3 3 4 4 4 4 4 3 2 2 3 3 3 4 4 4 4 3 2 2 2 3 5 6 5 5 5 4 3 2 2 1 2 1 2 2 1 1 2 3 5 5
3 3 3 3 4 4 4 4 4 2 2 2 2 3 4 4 5 5 4 3 3 3 2 1 2 2 3 4 6 5 5 3 2 2 3 3 2 1 1 2 1 1 3
Wind_Direction
138 139 135 146 164 154 158 164 172 174 177 185 184 176 178 176 176 172 183 183 183 185 187 190 192 195 196 197 198 197 198 199 201 201 201 202 202 200 199 197 198 199 197
136 135 137 149 158 159 167 168 169 169 172 173 169 172 170 172 176 178 182 191 193 193 195 196 197 198 200 200 200 201 202 203 204 205 207 207 208 206 205 202 202 204 203
137 135 133 146 160 156 150 146 151 141 161 168 160 174 175 178 177 181 183 189 197 201 200 202 204 208 208 207 206 205 205 205 206 206 209 210 210 210 210 207 208 207 204
140 134 136 155 159 140 142 148 144 140 162 179 188 190 173 176 183 180 183 188 195 207 210 212 213 215 215 215 213 211 210 210 209 210 213 214 213 213 212 211 212 209 207
138 129 143 174 154 136 144 158 147 157 166 184 196 195 184 181 186 192 194 198 201 207 211 218 219 218 218 219 219 217 216 216 216 215 216 217 218 216 213 212 214 211 210
142 129 142 167 142 133 134 142 153 159 173 181 184 184 203 207 193 201 207 206 207 210 210 216 219 223 223 223 223 222 222 221 220 220 220 220 222 220 215 214 214 214 215
154 146 155 156 150 153 165 159 147 159 181 148 105 35 351 305 216 216 203 195 210 215 206 210 213 218 226 225 226 225 226 226 223 222 223 223 223 221 217 216 214 215 217
164 160 164 170 168 150 153 159 144 142 178 147 139 113 5 346 337 242 202 204 214 212 215 216 218 218 226 222 228 226 227 228 227 225 224 224 222 220 218 216 216 217 219
169 165 160 166 171 162 175 182 165 154 170 222 168 148 154 222 295 330 294 234 213 213 226 216 215 218 220 222 232 231 227 227 228 229 227 224 222 222 220 217 219 221 221
172 173 165 168 170 166 175 198 179 164 155 196 249 208 181 169 167 286 318 306 253 234 234 231 229 223 221 220 228 224 220 220 225 227 227 225 224 222 220 218 219 221 221
184 177 166 165 172 175 180 182 168 166 167 180 202 210 187 169 162 170 260 304 314 282 250 234 234 228 221 219 225 228 219 217 220 225 226 225 222 221 220 220 221 223 224
204 198 176 172 178 178 182 185 185 181 184 181 192 180 173 181 197 173 201 255 278 286 288 261 239 238 229 227 230 222 210 214 218 220 222 224 223 221 220 221 223 225 225
204 218 190 177 182 189 190 180 175 192 187 177 193 203 199 200 183 168 165 210 250 281 301 302 264 248 247 239 248 239 214 212 214 211 212 216 216 216 219 224 224 226 228
207 203 189 186 191 183 181 165 162 191 166 190 205 197 211 219 187 176 173 172 209 296 309 285 312 261 251 240 263 246 227 205 207 204 206 207 206 205 208 210 210 205 209
198 189 177 180 188 180 175 157 151 174 160 211 238 222 227 245 213 196 183 173 171 209 265 265 285 302 293 293 279 244 220 192 188 194 195 192 193 190 185 179 178 181 185
196 172 179 176 176 184 180 163 165 183 179 219 227 228 247 256 234 211 203 195 179 181 223 243 237 264 291 313 39 291 211 144 146 163 175 173 170 172 180 181 178 180 185
175 176 182 178 177 183 178 179 196 187 196 233 244 225 248 245 242 245 211 196 191 167 199 264 263 278 277 272 320 27 107 144 131 151 161 157 157 162 169 175 178 176 177
188 189 178 177 186 189 190 193 213 212 198 212 232 235 254 245 247 241 201 204 210 191 169 227 277 295 278 273 294 210 175 143 156 140 157 157 157 157 159 163 172 171 172
193 188 181 193 197 196 199 208 212 223 217 221 223 222 240 230 240 240 207 202 207 186 160 178 242 273 282 292 15 352 22 48 140 142 158 160 157 159 161 162 167 168 172
190 194 197 205 205 204 211 218 212 220 230 236 232 228 235 224 228 222 208 202 178 153 147 159 219 256 254 274 97 32 10 11 24 73 120 136 142 153 164 174 176 171 170
197 199 198 205 212 212 216 214 218 219 228 240 243 236 235 229 217 201 197 200 182 172 166 174 201 217 235 198 220 205 178 51 7 26 76 95 124 142 188 193 184 179 180
200 193 203 207 221 237 228 212 208 220 224 227 240 249 245 234 222 200 195 186 179 182 187 186 204 213 230 219 210 194 166 132 274 278 126 179 135 203 240 219 203 195 195
201 203 212 211 225 238 230 221 216 213 218 221 227 233 242 239 210 200 204 198 208 211 198 193 200 223 219 210 185 191 195 188 216 214 143 243 235 244 250 229 212 212 208
203 211 216 217 224 238 227 225 225 220 223 230 228 221 220 231 212 187 185 212 238 237 221 204 205 221 219 202 189 190 190 181 300 243 150 199 242 246 256 243 225 220 219
213 216 214 212 217 241 232 225 214 215 229 244 242 233 221 219 216 189 177 206 244 261 247 219 216 220 218 203 182 148 150 145 225 256 194 179 223 243 268 262 245 226 222
213 212 220 216 215 229 224 213 198 201 221 245 255 251 232 219 213 198 192 198 228 247 231 237 236 231 219 211 195 184 182 180 190 236 215 181 194 164 272 274 246 231 227